スペースウォッチ彗星

125P/Spacewatch (2013)

English version
Home page
Updated on July 18, 2024

---------------------------------------------------------------------

・ プロフィール

・ 写真集

・ 軌道要素

Epoch 2013 Jan. 28.0 TT = JDT 2456320.5
T 2013 Feb. 16.98231 TT                                 Kobayashi
q   1.5254645            (2000.0)            P               Q
n   0.17815237     Peri.   87.22745     -0.48686475     +0.86996862
a   3.1280593      Node   153.18917     -0.85438234     -0.45568793
e   0.5123288      Incl.    9.98580     -0.18164124     -0.18842271
P   5.53
From 462 observations 1991 Sept. 8-2013 Sept. 14, mean residual 0".6.
     Nongravitational parameters A1 = +0.01, A2 = +0.0071.

・ 星図

・ 光度変化

        m1 = 9.5 + 5 logΔ + 20.0 log r(t - 100)  [   ,-30]  (              〜2013年 1月17日)
        m1 = 7.4 + 5 logΔ + 40   log r(t - 10)   [-30, 40]  (2013年 1月17日〜2013年 3月28日)
        m1 = 9.0 + 5 logΔ + 20.0 log r(t + 100)  [ 40,   ]  (2013年 3月28日〜              )

---------------------------------------------------------------------

軌道要素はM.P.E.C. 2015-M77に掲載されたものです。
星図はステラナビゲータ Ver.8 (アストロアーツ) で作成したものです。
光度グラフはComet for Windowsで作成したものです。

---------------------------------------------------------------------

Copyright(C) Seiichi Yoshida (comet@aerith.net). All rights reserved.